FW7576 Weather Reports


time (UTC)temp
C
wind
direction
speed
KPH
gust
KPH
rain 1hr
cm
rain 24hr
cm
rain mn
cm
humidity
%
barometer
mb
20260905024542 22 0 0.0 0.0 0.00 0.76 0.76 87 1014.5
20260905023043 22 0 0.0 1.6 0.00 0.76 0.76 87 1014.4
20260905021549 22 0 0.0 3.2 0.00 0.76 0.76 87 1014.4
20260905020040 22 0 0.0 4.8 0.00 0.76 0.76 87 1014.5
20260905014543 22 77 1.6 6.4 0.00 0.76 0.76 87 1014.5
20260905013047 22 75 3.2 4.8 0.00 0.76 0.76 87 1014.5
20260905011543 23 0 0.0 3.2 0.00 0.76 0.76 87 1014.4
20260905010045 23 75 1.6 3.2 0.00 0.76 0.76 87 1014.1
20260905004609 23 77 1.6 6.4 0.00 0.76 0.76 86 1013.7
20260905003049 23 74 1.6 4.8 0.00 0.76 0.76 84 1013.6
20260905001544 24 0 1.6 4.8 0.00 0.76 0.76 84 1013.6
20260905000043 24 76 1.6 3.2 0.00 0.76 0.76 83 1013.6
20260904234550 24 0 0.0 6.4 0.00 0.76 0.76 83 1013.5
20260904233045 25 69 3.2 9.7 0.00 0.76 0.76 82 1013.2
20260904231546 25 51 1.6 8.0 0.00 0.76 0.76 82 1013.1
20260904224541 25 51 1.6 8.0 0.00 0.76 0.76 80 1013.2
20260904223050 25 70 3.2 11.3 0.00 0.76 0.76 80 1013.2
20260904221543 25 82 6.4 11.3 0.00 0.76 0.76 79 1013.2
20260904220044 25 86 4.8 9.7 0.00 0.76 0.76 80 1013.2
20260904214548 25 33 6.4 11.3 0.00 0.76 0.76 79 1013.2
20260904213044 26 70 6.4 12.9 0.00 0.76 0.76 74 1013.0
20260904211549 30 80 4.8 9.7 0.00 0.76 0.76 65 1012.9
20260904210048 30 328 0.0 6.4 0.00 0.76 0.76 70 1012.8
20260904204543 29 238 6.4 19.3 0.00 0.76 0.76 71 1012.4
20260904203044 28 245 4.8 19.3 0.00 0.76 0.76 75 1012.2
20260904201547 28 213 6.4 20.9 0.00 0.76 0.76 75 1012.4
20260904200048 28 262 8.0 17.7 0.00 0.76 0.76 74 1012.5
20260904194544 28 252 6.4 22.5 0.00 0.76 0.76 76 1012.7
20260904193043 27 219 9.7 29.0 0.00 0.76 0.76 75 1012.9
20260904191543 26 239 9.7 19.3 0.00 0.76 0.76 77 1013.0
20260904190046 27 191 11.3 22.5 0.00 0.76 0.76 78 1013.0
20260904184544 26 237 6.4 19.3 0.00 0.76 0.76 81 1013.1
20260904183044 25 212 9.7 22.5 0.00 0.76 0.76 84 1013.4
20260904181543 23 263 4.8 17.7 0.00 0.76 0.76 86 1013.7
20260904180045 22 218 6.4 14.5 0.00 0.76 0.76 87 1013.7
20260904174542 22 192 6.4 17.7 0.00 1.17 0.76 87 1013.5
20260904173047 22 226 6.4 16.1 0.00 1.17 0.76 87 1013.5
20260904171544 21 197 6.4 17.7 0.00 1.17 0.76 87 1013.6
20260904170045 21 219 4.8 9.7 0.03 1.17 0.76 86 1013.6
20260904164550 20 208 4.8 11.3 0.05 1.42 0.76 86 1013.7
20260904163046 20 240 6.4 16.1 0.41 1.42 0.76 86 1014.1
20260904161545 20 203 4.8 16.1 0.41 1.42 0.76 86 1014.3
20260904160047 20 216 6.4 14.5 0.38 1.40 0.74 86 1015.0
20260904154549 20 226 9.7 19.3 0.36 1.47 0.71 86 1015.1
20260904153058 20 248 6.4 16.1 0.03 1.12 0.36 86 1016.7
20260904151543 20 0 0.0 9.7 0.08 1.12 0.36 85 1016.3
20260904150048 20 116 3.2 16.1 0.25 1.12 0.36 85 1016.1
20260904144551 20 67 6.4 14.5 0.28 1.12 0.36 86 1016.2
20260904143046 20 56 4.8 11.3 0.25 1.09 0.33 87 1016.8
20260904141539 20 65 4.8 20.9 0.20 1.04 0.28 87 1017.0
20260904140052 21 54 9.7 16.1 0.03 0.86 0.10 87 1017.1
20260904134547 21 319 4.8 16.1 0.00 0.84 0.08 86 1018.3
20260904133044 21 34 8.0 20.9 0.00 0.84 0.08 86 1017.6
20260904131543 21 267 6.4 32.2 0.00 0.84 0.08 86 1016.3
20260904130057 20 0 0.0 11.3 0.00 0.84 0.08 87 1015.6
20260904124553 20 77 6.4 14.5 0.00 0.86 0.08 87 1015.9
20260904123044 20 122 4.8 25.7 0.00 0.86 0.08 87 1015.7
20260904121542 20 72 16.1 29.0 0.00 0.86 0.08 87 1015.6
20260904120105 20 347 6.4 20.9 0.00 0.86 0.08 85 1015.5
20260904114544 20 42 3.2 8.0 0.00 0.86 0.08 84 1015.2
20260904113044 20 53 1.6 8.0 0.00 0.86 0.08 84 1014.6
20260904111542 20 0 0.0 3.2 0.00 0.86 0.08 85 1014.2
20260904110048 20 0 0.0 3.2 0.00 0.86 0.08 85 1014.1
20260904104543 20 0 1.6 8.0 0.00 0.86 0.08 86 1014.0
20260904103043 20 70 3.2 8.0 0.00 0.86 0.08 86 1013.8
20260904101544 20 55 6.4 11.3 0.00 0.86 0.08 87 1014.2
20260904100049 20 36 8.0 19.3 0.03 0.86 0.08 87 1014.3
20260904094543 21 25 8.0 17.7 0.05 0.86 0.08 86 1014.5
20260904093042 21 261 8.0 20.9 0.05 0.86 0.08 85 1014.5
20260904091542 22 23 6.4 12.9 0.05 0.86 0.08 83 1014.2
20260904090050 22 85 0.0 3.2 0.03 0.84 0.05 84 1013.3
20260904084543 22 0 0.0 3.2 0.03 0.81 0.03 84 1013.4
20260904083044 22 0 0.0 0.0 0.03 0.81 0.03 84 1012.9
20260904081554 22 0 0.0 0.0 0.03 0.81 0.03 84 1012.8
20260904080047 22 0 0.0 0.0 0.03 0.81 0.03 84 1013.2
20260904074541 22 0 0.0 0.0 0.00 0.89 0.00 85 1013.4
20260904073043 21 0 0.0 0.0 0.00 0.89 0.00 85 1013.5
20260904071543 21 0 0.0 1.6 0.00 0.89 0.00 85 1013.7
20260904070046 21 0 0.0 1.6 0.00 0.89 0.00 85 1014.1
20260904064543 22 60 4.8 11.3 0.00 0.89 0.00 84 1014.4
20260904063043 22 283 1.6 8.0 0.00 0.89 0.00 85 1013.8
20260904061552 21 0 1.6 8.0 0.00 0.89 0.00 85 1014.1
20260904060044 21 75 0.0 6.4 0.00 0.89 0.00 85 1014.1
20260904054544 21 73 1.6 4.8 0.00 0.89 0.00 86 1013.9
20260904053044 22 65 1.6 3.2 0.00 0.89 0.00 86 1014.6
20260904051542 22 122 0.0 3.2 0.00 0.89 0.00 86 1014.3
20260904050043 22 0 0.0 1.6 0.00 0.89 0.00 85 1014.4
20260904044555 22 0 0.0 6.4 0.00 0.89 0.89 85 1014.4
20260904043059 22 122 0.0 3.2 0.00 0.89 0.89 85 1014.9
20260904041545 22 0 0.0 1.6 0.00 0.89 0.89 85 1014.4
20260904040042 21 0 0.0 0.0 0.00 0.89 0.89 85 1014.8
20260904034549 22 122 0.0 1.6 0.00 0.89 0.89 86 1014.6
20260904033047 22 0 0.0 1.6 0.00 0.89 0.89 86 1015.0
20260904031544 22 0 0.0 1.6 0.00 0.89 0.89 86 1015.0
20260904030043 22 0 0.0 1.6 0.00 0.89 0.89 87 1015.0